date,time,water_lv
2023-10-01,00:00:00,0.496
2023-10-01,00:10:00,0.495
2023-10-01,00:20:00,0.493
2023-10-01,00:30:00,0.491
2023-10-01,00:40:00,0.49
2023-10-01,00:50:00,0.488
2023-10-01,01:00:00,0.486
2023-10-01,01:10:00,0.484
2023-10-01,01:20:00,0.482
2023-10-01,01:30:00,0.481
2023-10-01,01:40:00,-
2023-10-01,01:50:00,0.477
2023-10-01,02:00:00,-
2023-10-01,02:10:00,0.496
2023-10-01,02:20:00,0.495
2023-10-01,02:30:00,0.49
2023-10-01,02:40:00,0.489
2023-10-01,02:50:00,0.489
2023-10-01,03:00:00,0.489
2023-10-01,03:10:00,0.489
2023-10-01,03:20:00,0.488
2023-10-01,03:30:00,0.488
2023-10-01,03:40:00,0.487
2023-10-01,03:50:00,-
2023-10-01,04:00:00,-
2023-10-01,04:10:00,0.486
2023-10-01,04:20:00,0.484
2023-10-01,04:30:00,0.484
2023-10-01,04:40:00,0.483
2023-10-01,04:50:00,0.484
2023-10-01,05:00:00,0.483
2023-10-01,05:10:00,0.483
2023-10-01,05:20:00,0.482
2023-10-01,05:30:00,0.482
2023-10-01,05:40:00,0.48
2023-10-01,05:50:00,0.48
2023-10-01,06:00:00,0.479
2023-10-01,06:10:00,0.491
2023-10-01,06:20:00,0.504
2023-10-01,06:30:00,0.508
2023-10-01,06:40:00,0.505
2023-10-01,06:50:00,0.509
2023-10-01,07:00:00,0.507
2023-10-01,07:10:00,0.509
2023-10-01,07:20:00,0.508
2023-10-01,07:30:00,0.509
2023-10-01,07:40:00,0.509
2023-10-01,07:50:00,0.507
2023-10-01,08:00:00,0.505
2023-10-01,08:10:00,0.504
2023-10-01,08:20:00,0.504
2023-10-01,08:30:00,0.505
2023-10-01,08:40:00,0.505
2023-10-01,08:50:00,0.508
2023-10-01,09:00:00,0.508
2023-10-01,09:10:00,0.51
2023-10-01,09:20:00,0.51
2023-10-01,09:30:00,0.511
2023-10-01,09:40:00,0.513
2023-10-01,09:50:00,0.515
2023-10-01,10:00:00,0.513
2023-10-01,10:10:00,0.525
2023-10-01,10:20:00,0.528
2023-10-01,10:30:00,0.529
2023-10-01,10:40:00,0.53
2023-10-01,10:50:00,0.534
2023-10-01,11:00:00,0.536
2023-10-01,11:10:00,0.536
2023-10-01,11:20:00,0.538
2023-10-01,11:30:00,0.539
2023-10-01,11:40:00,0.539
2023-10-01,11:50:00,0.543
2023-10-01,12:00:00,0.544
2023-10-01,12:10:00,0.544
2023-10-01,12:20:00,0.547
2023-10-01,12:30:00,0.547
2023-10-01,12:40:00,0.548
2023-10-01,12:50:00,0.549
2023-10-01,13:00:00,0.547
2023-10-01,13:10:00,0.547
2023-10-01,13:20:00,0.544
2023-10-01,13:30:00,0.545
2023-10-01,13:40:00,0.547
2023-10-01,13:50:00,0.547
2023-10-01,14:00:00,0.548
2023-10-01,14:10:00,0.549
2023-10-01,14:20:00,0.547
2023-10-01,14:30:00,0.549
2023-10-01,14:40:00,0.547
2023-10-01,14:50:00,0.547
2023-10-01,15:00:00,0.547
2023-10-01,15:10:00,0.547
2023-10-01,15:20:00,0.548
2023-10-01,15:30:00,0.548
2023-10-01,15:40:00,0.548
2023-10-01,15:50:00,0.547
2023-10-01,16:00:00,0.547
2023-10-01,16:10:00,0.547
2023-10-01,16:20:00,0.544
2023-10-01,16:30:00,0.545
2023-10-01,16:40:00,0.541
2023-10-01,16:50:00,0.545
2023-10-01,17:00:00,0.545
2023-10-01,17:10:00,0.544
2023-10-01,17:20:00,0.544
2023-10-01,17:30:00,0.547
2023-10-01,17:40:00,0.547
2023-10-01,17:50:00,0.545
2023-10-01,18:00:00,0.547
2023-10-01,18:10:00,0.548
2023-10-01,18:20:00,0.548
2023-10-01,18:30:00,0.548
2023-10-01,18:40:00,0.548
2023-10-01,18:50:00,0.548
2023-10-01,19:00:00,0.549
2023-10-01,19:10:00,0.548
2023-10-01,19:20:00,0.548
2023-10-01,19:30:00,0.547
2023-10-01,19:40:00,0.541
2023-10-01,19:50:00,0.534
2023-10-01,20:00:00,0.534
2023-10-01,20:10:00,0.486
2023-10-01,20:20:00,0.484
2023-10-01,20:30:00,0.48
2023-10-01,20:40:00,0.482
2023-10-01,20:50:00,0.477
2023-10-01,21:00:00,0.477
2023-10-01,21:10:00,0.48
2023-10-01,21:20:00,0.482
2023-10-01,21:30:00,0.479
2023-10-01,21:40:00,0.475
2023-10-01,21:50:00,0.473
2023-10-01,22:00:00,0.47
2023-10-01,22:10:00,0.467
2023-10-01,22:20:00,0.466
2023-10-01,22:30:00,0.466
2023-10-01,22:40:00,0.462
2023-10-01,22:50:00,0.459
2023-10-01,23:00:00,0.457
2023-10-01,23:10:00,0.51
2023-10-01,23:20:00,0.518
2023-10-01,23:30:00,0.513
2023-10-01,23:40:00,0.511
2023-10-01,23:50:00,0.514
2023-10-02,00:00:00,0.514
2023-10-02,00:10:00,0.516
2023-10-02,00:20:00,0.516
2023-10-02,00:30:00,0.52
2023-10-02,00:40:00,0.518
2023-10-02,00:50:00,0.518
2023-10-02,01:00:00,0.52
2023-10-02,01:10:00,0.521
2023-10-02,01:20:00,0.521
2023-10-02,01:30:00,0.521
2023-10-02,01:40:00,0.521
2023-10-02,01:50:00,0.523
2023-10-02,02:00:00,0.522
2023-10-02,02:10:00,0.523
2023-10-02,02:20:00,0.522
2023-10-02,02:30:00,0.522
2023-10-02,02:40:00,0.523
2023-10-02,02:50:00,0.523
2023-10-02,03:00:00,0.523
2023-10-02,03:10:00,0.524
2023-10-02,03:20:00,0.523
2023-10-02,03:30:00,0.522
2023-10-02,03:40:00,0.523
2023-10-02,03:50:00,0.524
2023-10-02,04:00:00,0.523
2023-10-02,04:10:00,0.523
2023-10-02,04:20:00,0.522
2023-10-02,04:30:00,0.522
2023-10-02,04:40:00,0.522
2023-10-02,04:50:00,0.522
2023-10-02,05:00:00,0.522
2023-10-02,05:10:00,0.522
2023-10-02,05:20:00,0.521
2023-10-02,05:30:00,0.521
2023-10-02,05:40:00,0.521
2023-10-02,05:50:00,0.52
2023-10-02,06:00:00,0.52
2023-10-02,06:10:00,0.52
2023-10-02,06:20:00,0.518
2023-10-02,06:30:00,0.518
2023-10-02,06:40:00,0.518
2023-10-02,06:50:00,0.518
2023-10-02,07:00:00,0.517
2023-10-02,07:10:00,0.516
2023-10-02,07:20:00,0.515
2023-10-02,07:30:00,0.515
2023-10-02,07:40:00,0.513
2023-10-02,07:50:00,0.511
2023-10-02,08:00:00,0.514
2023-10-02,08:10:00,0.514
2023-10-02,08:20:00,0.514
2023-10-02,08:30:00,0.513
2023-10-02,08:40:00,0.509
2023-10-02,08:50:00,0.509
2023-10-02,09:00:00,0.507
2023-10-02,09:10:00,0.513
2023-10-02,09:20:00,0.616
2023-10-02,09:30:00,0.542
2023-10-02,09:40:00,0.516
2023-10-02,09:50:00,0.516
2023-10-02,10:00:00,0.52
2023-10-02,10:10:00,0.518
2023-10-02,10:20:00,0.517
2023-10-02,10:30:00,0.517
2023-10-02,10:40:00,0.516
2023-10-02,10:50:00,0.514
2023-10-02,11:00:00,0.514
2023-10-02,11:10:00,0.513
2023-10-02,11:20:00,0.515
2023-10-02,11:30:00,0.51
2023-10-02,11:40:00,0.513
2023-10-02,11:50:00,0.514
2023-10-02,12:00:00,0.514
2023-10-02,12:10:00,0.509
2023-10-02,12:20:00,0.514
2023-10-02,12:30:00,0.513
2023-10-02,12:40:00,0.51
2023-10-02,12:50:00,0.514
2023-10-02,13:00:00,0.514
2023-10-02,13:10:00,0.513
2023-10-02,13:20:00,0.509
2023-10-02,13:30:00,0.51
2023-10-02,13:40:00,0.508
2023-10-02,13:50:00,0.51
2023-10-02,14:00:00,0.508
2023-10-02,14:10:00,0.514
2023-10-02,14:20:00,0.497
2023-10-02,14:30:00,0.607
2023-10-02,14:40:00,0.569
2023-10-02,14:50:00,0.529
2023-10-02,15:00:00,0.52
2023-10-02,15:10:00,0.523
2023-10-02,15:20:00,0.528
2023-10-02,15:30:00,0.528
2023-10-02,15:40:00,0.527
2023-10-02,15:50:00,0.524
2023-10-02,16:00:00,0.527
2023-10-02,16:10:00,0.525
2023-10-02,16:20:00,0.527
2023-10-02,16:30:00,0.525
2023-10-02,16:40:00,0.527
2023-10-02,16:50:00,0.529
2023-10-02,17:00:00,0.528
2023-10-02,17:10:00,0.528
2023-10-02,17:20:00,0.527
2023-10-02,17:30:00,0.529
2023-10-02,17:40:00,0.53
2023-10-02,17:50:00,0.531
2023-10-02,18:00:00,0.532
2023-10-02,18:10:00,0.532
2023-10-02,18:20:00,0.534
2023-10-02,18:30:00,0.532
2023-10-02,18:40:00,0.534
2023-10-02,18:50:00,0.534
2023-10-02,19:00:00,0.534
2023-10-02,19:10:00,0.534
2023-10-02,19:20:00,0.535
2023-10-02,19:30:00,0.536
2023-10-02,19:40:00,0.535
2023-10-02,19:50:00,0.535
2023-10-02,20:00:00,0.536
2023-10-02,20:10:00,0.536
2023-10-02,20:20:00,0.537
2023-10-02,20:30:00,0.536
2023-10-02,20:40:00,0.537
2023-10-02,20:50:00,0.536
2023-10-02,21:00:00,0.536
2023-10-02,21:10:00,0.536
2023-10-02,21:20:00,0.537
2023-10-02,21:30:00,0.536
2023-10-02,21:40:00,0.536
2023-10-02,21:50:00,0.537
2023-10-02,22:00:00,0.538
2023-10-02,22:10:00,0.537
2023-10-02,22:20:00,0.538
2023-10-02,22:30:00,0.538
2023-10-02,22:40:00,0.538
2023-10-02,22:50:00,0.538
2023-10-02,23:00:00,0.538
2023-10-02,23:10:00,0.539
2023-10-02,23:20:00,0.538
2023-10-02,23:30:00,0.538
2023-10-02,23:40:00,0.538
2023-10-02,23:50:00,0.538
2023-10-03,00:00:00,0.538
2023-10-03,00:10:00,0.538
2023-10-03,00:20:00,0.538
2023-10-03,00:30:00,0.538
2023-10-03,00:40:00,0.538
2023-10-03,00:50:00,0.539
2023-10-03,01:00:00,0.538
2023-10-03,01:10:00,0.538
2023-10-03,01:20:00,0.538
2023-10-03,01:30:00,0.538
2023-10-03,01:40:00,0.538
2023-10-03,01:50:00,0.538
2023-10-03,02:00:00,0.537
2023-10-03,02:10:00,0.537
2023-10-03,02:20:00,0.536
2023-10-03,02:30:00,0.536
2023-10-03,02:40:00,0.537
2023-10-03,02:50:00,0.536
2023-10-03,03:00:00,0.536
2023-10-03,03:10:00,0.535
2023-10-03,03:20:00,0.537
2023-10-03,03:30:00,0.536
2023-10-03,03:40:00,0.535
2023-10-03,03:50:00,0.536
2023-10-03,04:00:00,0.534
2023-10-03,04:10:00,0.534
2023-10-03,04:20:00,0.534
2023-10-03,04:30:00,0.531
2023-10-03,04:40:00,0.532
2023-10-03,04:50:00,0.531
2023-10-03,05:00:00,0.53
2023-10-03,05:10:00,0.529
2023-10-03,05:20:00,0.529
2023-10-03,05:30:00,0.528
2023-10-03,05:40:00,0.527
2023-10-03,05:50:00,0.525
2023-10-03,06:00:00,0.527
2023-10-03,06:10:00,0.524
2023-10-03,06:20:00,0.523
2023-10-03,06:30:00,0.522
2023-10-03,06:40:00,0.52
2023-10-03,06:50:00,0.52
2023-10-03,07:00:00,0.518
2023-10-03,07:10:00,0.516
2023-10-03,07:20:00,0.515
2023-10-03,07:30:00,0.517
2023-10-03,07:40:00,0.516
2023-10-03,07:50:00,0.515
2023-10-03,08:00:00,0.515
2023-10-03,08:10:00,0.591
2023-10-03,08:20:00,0.543
2023-10-03,08:30:00,0.52
2023-10-03,08:40:00,0.507
2023-10-03,08:50:00,0.508
2023-10-03,09:00:00,0.511
2023-10-03,09:10:00,0.507
2023-10-03,09:20:00,0.51
2023-10-03,09:30:00,0.505
2023-10-03,09:40:00,0.502
2023-10-03,09:50:00,0.505
2023-10-03,10:00:00,0.508
2023-10-03,10:10:00,0.502
2023-10-03,10:20:00,0.504
2023-10-03,10:30:00,0.503
2023-10-03,10:40:00,0.504
2023-10-03,10:50:00,0.503
2023-10-03,11:00:00,0.503
2023-10-03,11:10:00,0.503
2023-10-03,11:20:00,0.501
2023-10-03,11:30:00,0.503
2023-10-03,11:40:00,0.503
2023-10-03,11:50:00,0.502
2023-10-03,12:00:00,0.45
2023-10-03,12:10:00,0.441
2023-10-03,12:20:00,0.442
2023-10-03,12:30:00,0.441
2023-10-03,12:40:00,0.442
2023-10-03,12:50:00,0.435
2023-10-03,13:00:00,0.433
2023-10-03,13:10:00,0.43
2023-10-03,13:20:00,0.427
2023-10-03,13:30:00,0.423
2023-10-03,13:40:00,0.421
2023-10-03,13:50:00,0.418
2023-10-03,14:00:00,0.414
2023-10-03,14:10:00,0.414
2023-10-03,14:20:00,0.413
2023-10-03,14:30:00,0.412
2023-10-03,14:40:00,0.411
2023-10-03,14:50:00,0.408
2023-10-03,15:00:00,0.405
2023-10-03,15:10:00,0.406
2023-10-03,15:20:00,0.405
2023-10-03,15:30:00,0.404
2023-10-03,15:40:00,0.402
2023-10-03,15:50:00,0.401
2023-10-03,16:00:00,0.401
2023-10-03,16:10:00,0.401
2023-10-03,16:20:00,0.4
2023-10-03,16:30:00,0.401
2023-10-03,16:40:00,0.399
2023-10-03,16:50:00,0.4
2023-10-03,17:00:00,0.469
2023-10-03,17:10:00,0.639
2023-10-03,17:20:00,0.527
2023-10-03,17:30:00,0.529
2023-10-03,17:40:00,0.626
2023-10-03,17:50:00,0.723
2023-10-03,18:00:00,0.798
2023-10-03,18:10:00,0.845
2023-10-03,18:20:00,0.879
2023-10-03,18:30:00,0.905
2023-10-03,18:40:00,0.919
2023-10-03,18:50:00,0.934
2023-10-03,19:00:00,0.94
2023-10-03,19:10:00,0.945
2023-10-03,19:20:00,0.95
2023-10-03,19:30:00,0.957
2023-10-03,19:40:00,0.96
2023-10-03,19:50:00,0.966
2023-10-03,20:00:00,0.967
2023-10-03,20:10:00,0.968
2023-10-03,20:20:00,0.971
2023-10-03,20:30:00,0.973
2023-10-03,20:40:00,0.974
2023-10-03,20:50:00,0.978
2023-10-03,21:00:00,0.975
2023-10-03,21:10:00,0.978
2023-10-03,21:20:00,0.974
2023-10-03,21:30:00,0.98
2023-10-03,21:40:00,0.98
2023-10-03,21:50:00,0.978
2023-10-03,22:00:00,0.978
2023-10-03,22:10:00,0.979
2023-10-03,22:20:00,0.978
2023-10-03,22:30:00,0.974
2023-10-03,22:40:00,0.978
2023-10-03,22:50:00,0.977
2023-10-03,23:00:00,0.975
2023-10-03,23:10:00,0.978
2023-10-03,23:20:00,0.975
2023-10-03,23:30:00,0.974
2023-10-03,23:40:00,0.975
2023-10-03,23:50:00,0.975
2023-10-04,00:00:00,0.974
2023-10-04,00:10:00,0.974
2023-10-04,00:20:00,0.971
2023-10-04,00:30:00,0.972
2023-10-04,00:40:00,0.971
2023-10-04,00:50:00,0.971
2023-10-04,01:00:00,0.968
2023-10-04,01:10:00,0.967
2023-10-04,01:20:00,0.964
2023-10-04,01:30:00,0.966
2023-10-04,01:40:00,0.965
2023-10-04,01:50:00,0.965
2023-10-04,02:00:00,0.964
2023-10-04,02:10:00,0.964
2023-10-04,02:20:00,0.961
2023-10-04,02:30:00,0.96
2023-10-04,02:40:00,0.958
2023-10-04,02:50:00,0.957
2023-10-04,03:00:00,0.954
2023-10-04,03:10:00,0.952
2023-10-04,03:20:00,0.95
2023-10-04,03:30:00,0.95
2023-10-04,03:40:00,0.947
2023-10-04,03:50:00,0.947
2023-10-04,04:00:00,0.943
2023-10-04,04:10:00,0.941
2023-10-04,04:20:00,0.938
2023-10-04,04:30:00,0.939
2023-10-04,04:40:00,0.937
2023-10-04,04:50:00,0.937
2023-10-04,05:00:00,0.932
2023-10-04,05:10:00,0.932
2023-10-04,05:20:00,0.929
2023-10-04,05:30:00,0.929
2023-10-04,05:40:00,0.925
2023-10-04,05:50:00,0.924
2023-10-04,06:00:00,0.922
2023-10-04,06:10:00,0.922
2023-10-04,06:20:00,0.918
2023-10-04,06:30:00,0.919
2023-10-04,06:40:00,0.917
2023-10-04,06:50:00,0.917
2023-10-04,07:00:00,0.919
2023-10-04,07:10:00,0.926
2023-10-04,07:20:00,0.923
2023-10-04,07:30:00,0.918
2023-10-04,07:40:00,0.914
2023-10-04,07:50:00,0.909
2023-10-04,08:00:00,0.912
2023-10-04,08:10:00,0.91
2023-10-04,08:20:00,0.907
2023-10-04,08:30:00,0.906
2023-10-04,08:40:00,0.906
2023-10-04,08:50:00,0.906
2023-10-04,09:00:00,0.905
2023-10-04,09:10:00,0.925
2023-10-04,09:20:00,0.932
2023-10-04,09:30:00,0.896
2023-10-04,09:40:00,0.89
2023-10-04,09:50:00,0.897
2023-10-04,10:00:00,0.902
2023-10-04,10:10:00,0.902
2023-10-04,10:20:00,0.898
2023-10-04,10:30:00,0.897
2023-10-04,10:40:00,0.896
2023-10-04,10:50:00,0.895
2023-10-04,11:00:00,0.892
2023-10-04,11:10:00,0.89
2023-10-04,11:20:00,0.891
2023-10-04,11:30:00,0.89
2023-10-04,11:40:00,0.89
2023-10-04,11:50:00,0.888
2023-10-04,12:00:00,0.888
2023-10-04,12:10:00,0.886
2023-10-04,12:20:00,0.884
2023-10-04,12:30:00,0.884
2023-10-04,12:40:00,0.882
2023-10-04,12:50:00,0.879
2023-10-04,13:00:00,0.878
2023-10-04,13:10:00,0.875
2023-10-04,13:20:00,0.873
2023-10-04,13:30:00,0.873
2023-10-04,13:40:00,0.873
2023-10-04,13:50:00,0.875
2023-10-04,14:00:00,0.906
2023-10-04,14:10:00,0.94
2023-10-04,14:20:00,0.872
2023-10-04,14:30:00,0.87
2023-10-04,14:40:00,0.883
2023-10-04,14:50:00,0.888
2023-10-04,15:00:00,0.884
2023-10-04,15:10:00,0.882
2023-10-04,15:20:00,0.881
2023-10-04,15:30:00,0.878
2023-10-04,15:40:00,0.876
2023-10-04,15:50:00,0.879
2023-10-04,16:00:00,0.877
2023-10-04,16:10:00,0.876
2023-10-04,16:20:00,0.873
2023-10-04,16:30:00,0.871
2023-10-04,16:40:00,0.87
2023-10-04,16:50:00,0.868
2023-10-04,17:00:00,0.866
2023-10-04,17:10:00,0.865
2023-10-04,17:20:00,0.864
2023-10-04,17:30:00,0.863
2023-10-04,17:40:00,0.861
2023-10-04,17:50:00,0.859
2023-10-04,18:00:00,0.858
2023-10-04,18:10:00,0.856
2023-10-04,18:20:00,0.852
2023-10-04,18:30:00,0.851
2023-10-04,18:40:00,0.849
2023-10-04,18:50:00,0.848
2023-10-04,19:00:00,0.845
2023-10-04,19:10:00,0.842
2023-10-04,19:20:00,0.841
2023-10-04,19:30:00,0.841
2023-10-04,19:40:00,0.838
2023-10-04,19:50:00,0.836
2023-10-04,20:00:00,0.835
2023-10-04,20:10:00,0.834
2023-10-04,20:20:00,0.832
2023-10-04,20:30:00,0.831
2023-10-04,20:40:00,0.83
2023-10-04,20:50:00,0.829
2023-10-04,21:00:00,0.828
2023-10-04,21:10:00,0.825
2023-10-04,21:20:00,0.825
2023-10-04,21:30:00,0.823
2023-10-04,21:40:00,0.822
2023-10-04,21:50:00,0.82
2023-10-04,22:00:00,0.818
2023-10-04,22:10:00,0.816
2023-10-04,22:20:00,0.814
2023-10-04,22:30:00,0.813
2023-10-04,22:40:00,0.811
2023-10-04,22:50:00,0.809
2023-10-04,23:00:00,0.808
2023-10-04,23:10:00,0.806
2023-10-04,23:20:00,0.804
2023-10-04,23:30:00,0.801
2023-10-04,23:40:00,0.801
2023-10-04,23:50:00,0.798
2023-10-05,00:00:00,0.796
2023-10-05,00:10:00,0.794
2023-10-05,00:20:00,0.791
2023-10-05,00:30:00,0.79
2023-10-05,00:40:00,0.79
2023-10-05,00:50:00,0.787
2023-10-05,01:00:00,0.786
2023-10-05,01:10:00,0.782
2023-10-05,01:20:00,0.781
2023-10-05,01:30:00,0.78
2023-10-05,01:40:00,0.777
2023-10-05,01:50:00,0.775
2023-10-05,02:00:00,0.774
2023-10-05,02:10:00,0.769
2023-10-05,02:20:00,0.767
2023-10-05,02:30:00,0.766
2023-10-05,02:40:00,0.766
2023-10-05,02:50:00,0.763
2023-10-05,03:00:00,0.761
2023-10-05,03:10:00,0.76
2023-10-05,03:20:00,0.757
2023-10-05,03:30:00,0.754
2023-10-05,03:40:00,0.754
2023-10-05,03:50:00,0.752
2023-10-05,04:00:00,0.749
2023-10-05,04:10:00,0.748
2023-10-05,04:20:00,0.746
2023-10-05,04:30:00,0.743
2023-10-05,04:40:00,0.741
2023-10-05,04:50:00,0.739
2023-10-05,05:00:00,0.738
2023-10-05,05:10:00,0.735
2023-10-05,05:20:00,0.732
2023-10-05,05:30:00,0.728
2023-10-05,05:40:00,0.728
2023-10-05,05:50:00,0.726
2023-10-05,06:00:00,0.722
2023-10-05,06:10:00,0.716
2023-10-05,06:20:00,0.714
2023-10-05,06:30:00,0.711
2023-10-05,06:40:00,0.707
2023-10-05,06:50:00,0.706
2023-10-05,07:00:00,0.707
2023-10-05,07:10:00,0.705
2023-10-05,07:20:00,0.704
2023-10-05,07:30:00,0.7
2023-10-05,07:40:00,0.698
2023-10-05,07:50:00,0.697
2023-10-05,08:00:00,0.803
2023-10-05,08:10:00,0.795
2023-10-05,08:20:00,0.694
2023-10-05,08:30:00,0.68
2023-10-05,08:40:00,0.692
2023-10-05,08:50:00,0.698
2023-10-05,09:00:00,0.693
2023-10-05,09:10:00,0.687
2023-10-05,09:20:00,0.684
2023-10-05,09:30:00,0.777
2023-10-05,09:40:00,0.804
2023-10-05,09:50:00,0.691
2023-10-05,10:00:00,0.67
2023-10-05,10:10:00,0.68
2023-10-05,10:20:00,0.686
2023-10-05,10:30:00,0.681
2023-10-05,10:40:00,0.677
2023-10-05,10:50:00,0.674
2023-10-05,11:00:00,0.672
2023-10-05,11:10:00,0.673
2023-10-05,11:20:00,0.671
2023-10-05,11:30:00,0.667
2023-10-05,11:40:00,0.664
2023-10-05,11:50:00,0.664
2023-10-05,12:00:00,0.664
2023-10-05,12:10:00,0.663
2023-10-05,12:20:00,0.664
2023-10-05,12:30:00,0.659
2023-10-05,12:40:00,0.66
2023-10-05,12:50:00,0.657
2023-10-05,13:00:00,0.655
2023-10-05,13:10:00,0.653
2023-10-05,13:20:00,0.651
2023-10-05,13:30:00,0.648
2023-10-05,13:40:00,0.645
2023-10-05,13:50:00,0.644
2023-10-05,14:00:00,0.638
2023-10-05,14:10:00,0.643
2023-10-05,14:20:00,0.645
2023-10-05,14:30:00,0.647
2023-10-05,14:40:00,0.648
2023-10-05,14:50:00,0.754
2023-10-05,15:00:00,0.74
2023-10-05,15:10:00,0.646
2023-10-05,15:20:00,0.639
2023-10-05,15:30:00,0.658
2023-10-05,15:40:00,0.671
2023-10-05,15:50:00,0.667
2023-10-05,16:00:00,0.665
2023-10-05,16:10:00,0.665
2023-10-05,16:20:00,0.663
2023-10-05,16:30:00,0.661
2023-10-05,16:40:00,0.659
2023-10-05,16:50:00,0.658
2023-10-05,17:00:00,0.657
2023-10-05,17:10:00,0.659
2023-10-05,17:20:00,0.657
2023-10-05,17:30:00,0.654
2023-10-05,17:40:00,0.651
2023-10-05,17:50:00,0.646
2023-10-05,18:00:00,0.644
2023-10-05,18:10:00,0.643
2023-10-05,18:20:00,0.64
2023-10-05,18:30:00,0.64
2023-10-05,18:40:00,0.638
2023-10-05,18:50:00,0.637
2023-10-05,19:00:00,0.637
2023-10-05,19:10:00,0.636
2023-10-05,19:20:00,0.633
2023-10-05,19:30:00,0.631
2023-10-05,19:40:00,0.629
2023-10-05,19:50:00,0.626
2023-10-05,20:00:00,0.625
2023-10-05,20:10:00,0.624
2023-10-05,20:20:00,0.62
2023-10-05,20:30:00,0.619
2023-10-05,20:40:00,0.614
2023-10-05,20:50:00,0.613
2023-10-05,21:00:00,0.611
2023-10-05,21:10:00,0.609
2023-10-05,21:20:00,0.605
2023-10-05,21:30:00,0.603
2023-10-05,21:40:00,0.6
2023-10-05,21:50:00,0.6
2023-10-05,22:00:00,0.602
2023-10-05,22:10:00,0.599
2023-10-05,22:20:00,0.599
2023-10-05,22:30:00,0.598
2023-10-05,22:40:00,0.595
2023-10-05,22:50:00,0.593
2023-10-05,23:00:00,0.591
2023-10-05,23:10:00,0.589
2023-10-05,23:20:00,0.588
2023-10-05,23:30:00,0.585
2023-10-05,23:40:00,0.582
2023-10-05,23:50:00,0.578
2023-10-06,00:00:00,0.576
2023-10-06,00:10:00,0.573
2023-10-06,00:20:00,0.572
2023-10-06,00:30:00,0.571
2023-10-06,00:40:00,0.572
2023-10-06,00:50:00,0.566
2023-10-06,01:00:00,0.566
2023-10-06,01:10:00,0.563
2023-10-06,01:20:00,0.568
2023-10-06,01:30:00,0.57
2023-10-06,01:40:00,0.585
2023-10-06,01:50:00,0.6
2023-10-06,02:00:00,0.607
2023-10-06,02:10:00,0.611
2023-10-06,02:20:00,0.612
2023-10-06,02:30:00,0.611
2023-10-06,02:40:00,0.612
2023-10-06,02:50:00,0.613
2023-10-06,03:00:00,0.617
2023-10-06,03:10:00,0.616
2023-10-06,03:20:00,0.618
2023-10-06,03:30:00,0.617
2023-10-06,03:40:00,0.617
2023-10-06,03:50:00,0.617
2023-10-06,04:00:00,0.617
2023-10-06,04:10:00,0.613
2023-10-06,04:20:00,0.613
2023-10-06,04:30:00,0.612
2023-10-06,04:40:00,0.612
2023-10-06,04:50:00,0.61
2023-10-06,05:00:00,0.609
2023-10-06,05:10:00,0.607
2023-10-06,05:20:00,0.607
2023-10-06,05:30:00,0.606
2023-10-06,05:40:00,0.604
2023-10-06,05:50:00,0.604
2023-10-06,06:00:00,0.6
2023-10-06,06:10:00,0.599
2023-10-06,06:20:00,0.6
2023-10-06,06:30:00,0.598
2023-10-06,06:40:00,0.595
2023-10-06,06:50:00,0.592
2023-10-06,07:00:00,0.591
2023-10-06,07:10:00,0.59
2023-10-06,07:20:00,0.589
2023-10-06,07:30:00,0.59
2023-10-06,07:40:00,0.589
2023-10-06,07:50:00,0.589
2023-10-06,08:00:00,0.591
2023-10-06,08:10:00,0.588
2023-10-06,08:20:00,0.588
2023-10-06,08:30:00,0.586
2023-10-06,08:40:00,0.584
2023-10-06,08:50:00,0.586
2023-10-06,09:00:00,0.584
2023-10-06,09:10:00,0.579
2023-10-06,09:20:00,0.58
2023-10-06,09:30:00,0.578
2023-10-06,09:40:00,0.579
2023-10-06,09:50:00,0.578
2023-10-06,10:00:00,0.577
2023-10-06,10:10:00,0.576
2023-10-06,10:20:00,0.576
2023-10-06,10:30:00,0.575
2023-10-06,10:40:00,0.573
2023-10-06,10:50:00,0.573
2023-10-06,11:00:00,0.573
2023-10-06,11:10:00,0.573
2023-10-06,11:20:00,0.57
2023-10-06,11:30:00,0.57
2023-10-06,11:40:00,0.569
2023-10-06,11:50:00,0.568
2023-10-06,12:00:00,0.569
2023-10-06,12:10:00,0.568
2023-10-06,12:20:00,0.566
2023-10-06,12:30:00,0.564
2023-10-06,12:40:00,0.563
2023-10-06,12:50:00,0.561
2023-10-06,13:00:00,0.561
2023-10-06,13:10:00,0.558
2023-10-06,13:20:00,0.554
2023-10-06,13:30:00,0.555
2023-10-06,13:40:00,0.554
2023-10-06,13:50:00,0.554
2023-10-06,14:00:00,0.554
2023-10-06,14:10:00,0.551
2023-10-06,14:20:00,0.551
2023-10-06,14:30:00,0.549
2023-10-06,14:40:00,0.555
2023-10-06,14:50:00,0.563
2023-10-06,15:00:00,0.565
2023-10-06,15:10:00,0.57
2023-10-06,15:20:00,0.569
2023-10-06,15:30:00,0.566
2023-10-06,15:40:00,0.565
2023-10-06,15:50:00,0.566
2023-10-06,16:00:00,0.563
2023-10-06,16:10:00,0.557
2023-10-06,16:20:00,0.555
2023-10-06,16:30:00,0.555
2023-10-06,16:40:00,0.554
2023-10-06,16:50:00,-
2023-10-06,17:00:00,0.55
2023-10-06,17:10:00,0.55
2023-10-06,17:20:00,0.547
2023-10-06,17:30:00,0.543
2023-10-06,17:40:00,0.543
2023-10-06,17:50:00,0.543
2023-10-06,18:00:00,0.542
2023-10-06,18:10:00,0.541
2023-10-06,18:20:00,0.537
2023-10-06,18:30:00,0.536
2023-10-06,18:40:00,0.534
2023-10-06,18:50:00,0.53
2023-10-06,19:00:00,0.527
2023-10-06,19:10:00,0.527
2023-10-06,19:20:00,0.525
2023-10-06,19:30:00,0.524
2023-10-06,19:40:00,0.522
2023-10-06,19:50:00,0.521
2023-10-06,20:00:00,0.52
2023-10-06,20:10:00,0.518
2023-10-06,20:20:00,0.517
2023-10-06,20:30:00,0.515
2023-10-06,20:40:00,0.513
2023-10-06,20:50:00,0.513
2023-10-06,21:00:00,0.509
2023-10-06,21:10:00,0.508
2023-10-06,21:20:00,0.508
2023-10-06,21:30:00,0.505
2023-10-06,21:40:00,0.504
2023-10-06,21:50:00,0.503
2023-10-06,22:00:00,0.524
2023-10-06,22:10:00,0.522
2023-10-06,22:20:00,0.516
2023-10-06,22:30:00,0.513
2023-10-06,22:40:00,0.51
2023-10-06,22:50:00,0.511
2023-10-06,23:00:00,0.513
2023-10-06,23:10:00,0.514
2023-10-06,23:20:00,0.511
2023-10-06,23:30:00,0.51
2023-10-06,23:40:00,0.508
2023-10-06,23:50:00,0.508
2023-10-07,00:00:00,0.508
2023-10-07,00:10:00,0.508
2023-10-07,00:20:00,0.509
2023-10-07,00:30:00,0.508
2023-10-07,00:40:00,0.505
2023-10-07,00:50:00,0.507
2023-10-07,01:00:00,0.505
2023-10-07,01:10:00,0.505
2023-10-07,01:20:00,0.504
2023-10-07,01:30:00,0.503
2023-10-07,01:40:00,0.502
2023-10-07,01:50:00,0.501
2023-10-07,02:00:00,0.5
2023-10-07,02:10:00,0.501
2023-10-07,02:20:00,0.5
2023-10-07,02:30:00,0.498
2023-10-07,02:40:00,0.497
2023-10-07,02:50:00,0.497
2023-10-07,03:00:00,0.496
2023-10-07,03:10:00,0.496
2023-10-07,03:20:00,0.495
2023-10-07,03:30:00,0.496
2023-10-07,03:40:00,0.495
2023-10-07,03:50:00,0.495
2023-10-07,04:00:00,0.493
2023-10-07,04:10:00,0.493
2023-10-07,04:20:00,0.493
2023-10-07,04:30:00,0.493
2023-10-07,04:40:00,0.491
2023-10-07,04:50:00,0.493
2023-10-07,05:00:00,0.491
2023-10-07,05:10:00,0.491
2023-10-07,05:20:00,0.491
2023-10-07,05:30:00,0.489
2023-10-07,05:40:00,0.489
2023-10-07,05:50:00,0.489
2023-10-07,06:00:00,0.489
2023-10-07,06:10:00,0.488
2023-10-07,06:20:00,0.487
2023-10-07,06:30:00,0.487
2023-10-07,06:40:00,0.486
2023-10-07,06:50:00,0.486
2023-10-07,07:00:00,0.484
2023-10-07,07:10:00,0.483
2023-10-07,07:20:00,0.482
2023-10-07,07:30:00,0.483
2023-10-07,07:40:00,-
2023-10-07,07:50:00,0.49
2023-10-07,08:00:00,0.489
2023-10-07,08:10:00,0.531
2023-10-07,08:20:00,0.631
2023-10-07,08:30:00,0.52
2023-10-07,08:40:00,0.483
2023-10-07,08:50:00,0.487
2023-10-07,09:00:00,0.49
2023-10-07,09:10:00,0.49
2023-10-07,09:20:00,0.489
2023-10-07,09:30:00,0.597
2023-10-07,09:40:00,0.625
2023-10-07,09:50:00,0.515
2023-10-07,10:00:00,0.481
2023-10-07,10:10:00,0.491
2023-10-07,10:20:00,0.496